| time (UTC) | temp F | wind direction | speed MPH | gust MPH | rain 1hr in | rain 24hr in | rain mn in | humidity % | barometer mb |
| 20260903021120 | 65 | 337 | 2.0 | 6.0 | 0.00 | 0.00 | 0.00 | 84 | 1019.1 |
| 20260903020757 | 65 | 343 | 2.0 | 4.0 | 0.00 | 0.00 | 0.00 | 83 | 1019.4 |
| 20260903014734 | 65 | 343 | 3.0 | 6.0 | 0.00 | 0.00 | 0.00 | 83 | 1019.2 |
| 20260903013734 | 65 | 337 | 3.0 | 4.0 | 0.00 | 0.00 | 0.00 | 87 | 1019.4 |
| 20260903012733 | 65 | 356 | 3.0 | 4.0 | 0.00 | 0.00 | 0.00 | 87 | 1019.6 |
| 20260903011735 | 66 | 3 | 2.0 | 3.0 | 0.00 | 0.00 | 0.00 | 87 | 1019.6 |
| 20260903010734 | 66 | 342 | 2.0 | 4.0 | 0.00 | 0.00 | 0.00 | 87 | 1019.7 |
| 20260903005734 | 66 | 342 | 2.0 | 4.0 | 0.00 | 0.00 | 0.00 | 87 | 1019.5 |
| 20260903004733 | 66 | 342 | 2.0 | 4.0 | 0.00 | 0.00 | 0.00 | 86 | 1019.8 |
| 20260903003734 | 66 | 346 | 3.0 | 6.0 | 0.00 | 0.00 | 0.00 | 85 | 1019.8 |
| 20260903002734 | 66 | 338 | 4.0 | 6.0 | 0.00 | 0.00 | 0.00 | 86 | 1020.0 |
| 20260903001734 | 67 | 339 | 3.0 | 4.0 | 0.00 | 0.00 | 0.00 | 87 | 1020.2 |
| 20260903000734 | 67 | 342 | 2.0 | 3.0 | 0.00 | 0.00 | 0.00 | 86 | 1020.0 |
| 20260902235733 | 67 | 9 | 1.0 | 3.0 | 0.00 | 0.00 | 0.00 | 86 | 1019.9 |
| 20260902234734 | 67 | 334 | 2.0 | 6.0 | 0.00 | 0.00 | 0.00 | 86 | 1020.0 |
| 20260902234210 | 67 | 4 | 3.0 | 7.0 | 0.00 | 0.00 | 0.00 | 86 | 1020.3 |
| 20260902232734 | 67 | 336 | 2.0 | 6.0 | 0.00 | 0.00 | 0.00 | 86 | 1020.1 |
| 20260902231734 | 67 | 344 | 2.0 | 4.0 | 0.00 | 0.00 | 0.00 | 87 | 1020.3 |
| 20260902231213 | 67 | 346 | 3.0 | 6.0 | 0.00 | 0.00 | 0.00 | 87 | 1020.2 |
| 20260902225734 | 67 | 11 | 3.0 | 6.0 | 0.00 | 0.00 | 0.00 | 86 | 1020.2 |
| 20260902224733 | 68 | 9 | 3.0 | 4.0 | 0.00 | 0.00 | 0.00 | 87 | 1020.3 |
| 20260902223734 | 68 | 334 | 2.0 | 4.0 | 0.00 | 0.00 | 0.00 | 87 | 1020.6 |
| 20260902222734 | 69 | 20 | 2.0 | 3.0 | 0.00 | 0.00 | 0.00 | 86 | 1020.7 |
| 20260902221735 | 68 | 337 | 1.0 | 2.0 | 0.00 | 0.00 | 0.00 | 86 | 1020.5 |
| 20260902220733 | 68 | 332 | 0.0 | 2.0 | 0.00 | 0.00 | 0.00 | 87 | 1020.6 |
| 20260902220649 | 67 | 340 | 2.0 | 2.0 | 0.00 | 0.00 | 0.00 | 85 | 1020.6 |
| 20260902214736 | 67 | 333 | 1.0 | 3.0 | 0.00 | 0.00 | 0.00 | 87 | 1020.4 |
| 20260902213734 | 67 | 344 | 1.0 | 3.0 | 0.00 | 0.00 | 0.00 | 86 | 1020.2 |
| 20260902212734 | 67 | 346 | 2.0 | 3.0 | 0.00 | 0.00 | 0.00 | 86 | 1020.3 |
| 20260902211734 | 67 | 333 | 2.0 | 3.0 | 0.00 | 0.00 | 0.00 | 87 | 1020.1 |
| 20260902210733 | 67 | 341 | 0.0 | 3.0 | 0.00 | 0.00 | 0.00 | 85 | 1019.8 |
| 20260902205735 | 67 | 350 | 1.0 | 3.0 | 0.00 | 0.00 | 0.00 | 86 | 1019.8 |
| 20260902204734 | 67 | 348 | 2.0 | 3.0 | 0.00 | 0.00 | 0.00 | 88 | 1019.7 |
| 20260902203734 | 68 | 337 | 1.0 | 3.0 | 0.00 | 0.00 | 0.00 | 87 | 1019.8 |
| 20260902203215 | 69 | 48 | 0.0 | 2.0 | 0.00 | 0.00 | 0.00 | 88 | 1019.7 |
| 20260902201733 | 68 | 338 | 2.0 | 3.0 | 0.00 | 0.00 | 0.00 | 86 | 1019.5 |
| 20260902200733 | 69 | 339 | 0.0 | 2.0 | 0.00 | 0.00 | 0.00 | 87 | 1019.5 |
| 20260902195734 | 69 | 338 | 2.0 | 2.0 | 0.00 | 0.00 | 0.00 | 86 | 1019.6 |
| 20260902195211 | 69 | 333 | 0.0 | 3.0 | 0.00 | 0.00 | 0.00 | 86 | 1019.4 |
| 20260902194224 | 69 | 353 | 2.0 | 3.0 | 0.00 | 0.00 | 0.00 | 86 | 1019.2 |
| 20260902193213 | 69 | 343 | 2.0 | 2.0 | 0.00 | 0.00 | 0.00 | 88 | 1019.2 |
| 20260902191734 | 69 | 357 | 2.0 | 2.0 | 0.00 | 0.00 | 0.00 | 88 | 1019.1 |
| 20260902190734 | 70 | 320 | 0.0 | 2.0 | 0.00 | 0.00 | 0.00 | 88 | 1019.4 |
| 20260902185735 | 70 | 113 | 0.0 | 2.0 | 0.00 | 0.00 | 0.00 | 88 | 1019.5 |
| 20260902185221 | 71 | 227 | 1.0 | 2.0 | 0.00 | 0.00 | 0.00 | 87 | 1019.5 |
| 20260902184209 | 71 | 131 | 1.0 | 3.0 | 0.00 | 0.00 | 0.00 | 87 | 1019.4 |
| 20260902182735 | 71 | 154 | 0.0 | 3.0 | 0.00 | 0.00 | 0.00 | 86 | 1019.6 |
| 20260902181734 | 71 | 181 | 0.0 | 3.0 | 0.00 | 0.00 | 0.00 | 86 | 1019.5 |
| 20260902180735 | 71 | 140 | 1.0 | 6.0 | 0.00 | 0.00 | 0.00 | 86 | 1019.5 |
| 20260902175735 | 72 | 148 | 1.0 | 4.0 | 0.00 | 0.00 | 0.00 | 86 | 1019.5 |
| 20260902174734 | 71 | 63 | 0.0 | 6.0 | 0.00 | 0.00 | 0.00 | 87 | 1019.8 |
| 20260902173734 | 71 | 190 | 2.0 | 6.0 | 0.00 | 0.00 | 0.00 | 87 | 1019.8 |
| 20260902172734 | 71 | 88 | 4.0 | 6.0 | 0.00 | 0.00 | 0.00 | 86 | 1019.8 |
| 20260902171734 | 71 | 109 | 1.0 | 6.0 | 0.00 | 0.00 | 0.00 | 86 | 1019.7 |
| 20260902170734 | 71 | 90 | 3.0 | 4.0 | 0.00 | 0.00 | 0.00 | 86 | 1019.7 |
| 20260902165734 | 71 | 112 | 3.0 | 6.0 | 0.00 | 0.00 | 0.00 | 86 | 1019.8 |
| 20260902165220 | 72 | 128 | 1.0 | 7.0 | 0.00 | 0.00 | 0.00 | 86 | 1020.1 |
| 20260902164649 | 72 | 84 | 3.0 | 7.0 | 0.00 | 0.00 | 0.00 | 85 | 1020.0 |
| 20260902162734 | 72 | 135 | 5.0 | 6.0 | 0.00 | 0.00 | 0.00 | 84 | 1019.9 |
| 20260902161734 | 73 | 136 | 5.0 | 7.0 | 0.00 | 0.00 | 0.00 | 84 | 1019.9 |
| 20260902161216 | 72 | 135 | 4.0 | 6.0 | 0.00 | 0.00 | 0.00 | 85 | 1020.1 |
| 20260902155734 | 72 | 131 | 1.0 | 6.0 | 0.00 | 0.00 | 0.00 | 85 | 1020.2 |
| 20260902155702 | 73 | 194 | 2.0 | 6.0 | 0.00 | 0.00 | 0.00 | 83 | 1020.5 |
| 20260902153733 | 73 | 184 | 3.0 | 7.0 | 0.00 | 0.00 | 0.00 | 82 | 1020.4 |
| 20260902152734 | 73 | 98 | 2.0 | 8.0 | 0.00 | 0.00 | 0.00 | 83 | 1020.4 |
| 20260902151734 | 72 | 161 | 2.0 | 7.0 | 0.00 | 0.00 | 0.00 | 83 | 1020.4 |
| 20260902150737 | 73 | 119 | 4.0 | 6.0 | 0.00 | 0.00 | 0.00 | 82 | 1020.6 |
| 20260902145736 | 73 | 54 | 2.0 | 7.0 | 0.00 | 0.00 | 0.00 | 82 | 1020.5 |
| 20260902144735 | 73 | 167 | 7.0 | 8.0 | 0.00 | 0.00 | 0.00 | 81 | 1020.7 |
| 20260902143734 | 73 | 152 | 1.0 | 8.0 | 0.00 | 0.00 | 0.00 | 81 | 1020.7 |
| 20260902142734 | 73 | 114 | 4.0 | 7.0 | 0.00 | 0.00 | 0.00 | 82 | 1020.9 |
| 20260902141733 | 73 | 197 | 6.0 | 7.0 | 0.00 | 0.00 | 0.00 | 80 | 1020.8 |
| 20260902140734 | 73 | 150 | 4.0 | 8.0 | 0.00 | 0.00 | 0.00 | 79 | 1021.0 |
| 20260902135734 | 74 | 133 | 5.0 | 9.0 | 0.00 | 0.00 | 0.00 | 79 | 1020.9 |
| 20260902135211 | 75 | 205 | 4.0 | 9.0 | 0.00 | 0.00 | 0.00 | 76 | 1021.1 |
| 20260902133734 | 76 | 153 | 3.0 | 10.0 | 0.00 | 0.00 | 0.00 | 75 | 1020.9 |
| 20260902132734 | 77 | 117 | 5.0 | 11.0 | 0.00 | 0.00 | 0.00 | 73 | 1020.9 |
| 20260902132251 | 77 | 129 | 7.0 | 10.0 | 0.00 | 0.00 | 0.00 | 74 | 1020.8 |
| 20260902132155 | 76 | 180 | 4.0 | 9.0 | 0.00 | 0.00 | 0.00 | 74 | 1020.8 |
| 20260902125734 | 76 | 101 | 1.0 | 10.0 | 0.00 | 0.00 | 0.00 | 75 | 1020.8 |
| 20260902124735 | 76 | 69 | 2.0 | 9.0 | 0.00 | 0.00 | 0.00 | 75 | 1020.8 |
| 20260902123734 | 76 | 125 | 5.0 | 13.0 | 0.00 | 0.00 | 0.00 | 75 | 1021.1 |
| 20260902123212 | 76 | 97 | 3.0 | 13.0 | 0.00 | 0.00 | 0.00 | 74 | 1021.1 |
| 20260902121734 | 76 | 155 | 6.0 | 9.0 | 0.00 | 0.00 | 0.00 | 71 | 1021.1 |
| 20260902121216 | 76 | 161 | 4.0 | 9.0 | 0.00 | 0.00 | 0.00 | 73 | 1021.0 |
| 20260902115734 | 75 | 111 | 5.0 | 10.0 | 0.00 | 0.00 | 0.00 | 74 | 1021.0 |
| 20260902114734 | 76 | 102 | 5.0 | 9.0 | 0.00 | 0.00 | 0.00 | 71 | 1021.1 |
| 20260902113734 | 76 | 90 | 7.0 | 8.0 | 0.00 | 0.00 | 0.00 | 72 | 1021.2 |
| 20260902112734 | 77 | 149 | 3.0 | 8.0 | 0.00 | 0.00 | 0.00 | 70 | 1021.2 |
| 20260902111734 | 76 | 139 | 6.0 | 8.0 | 0.00 | 0.00 | 0.00 | 70 | 1021.2 |
| 20260902110734 | 76 | 124 | 6.0 | 8.0 | 0.00 | 0.00 | 0.00 | 72 | 1021.1 |
| 20260902105734 | 76 | 106 | 6.0 | 7.0 | 0.00 | 0.00 | 0.00 | 70 | 1021.2 |
| 20260902104733 | 76 | 82 | 5.0 | 9.0 | 0.00 | 0.00 | 0.00 | 70 | 1021.3 |
| 20260902103734 | 75 | 185 | 4.0 | 7.0 | 0.00 | 0.00 | 0.00 | 72 | 1021.3 |
| 20260902102734 | 75 | 148 | 4.0 | 7.0 | 0.00 | 0.00 | 0.00 | 72 | 1021.2 |
| 20260902101734 | 75 | 121 | 3.0 | 7.0 | 0.00 | 0.00 | 0.00 | 71 | 1020.8 |
| 20260902100734 | 75 | 160 | 3.0 | 8.0 | 0.00 | 0.00 | 0.00 | 70 | 1020.9 |
| 20260902100213 | 74 | 138 | 5.0 | 7.0 | 0.00 | 0.00 | 0.00 | 71 | 1021.0 |
| 20260902094733 | 74 | 175 | 3.0 | 7.0 | 0.00 | 0.00 | 0.00 | 72 | 1021.1 |
| 20260902093734 | 75 | 135 | 5.0 | 7.0 | 0.00 | 0.00 | 0.00 | 69 | 1020.9 |
| 20260902092734 | 76 | 247 | 1.0 | 3.0 | 0.00 | 0.00 | 0.00 | 66 | 1020.8 |
| 20260902091734 | 74 | 67 | 0.0 | 2.0 | 0.00 | 0.00 | 0.00 | 69 | 1020.8 |
| 20260902090734 | 72 | 40 | 1.0 | 2.0 | 0.00 | 0.00 | 0.00 | 72 | 1020.8 |
| 20260902085734 | 69 | 7 | 1.0 | 3.0 | 0.00 | 0.00 | 0.00 | 76 | 1020.8 |
| 20260902084733 | 69 | 11 | 3.0 | 3.0 | 0.00 | 0.00 | 0.00 | 76 | 1020.8 |
| 20260902083734 | 68 | 10 | 3.0 | 4.0 | 0.00 | 0.00 | 0.00 | 76 | 1021.0 |
| 20260902082734 | 67 | 10 | 2.0 | 4.0 | 0.00 | 0.00 | 0.00 | 74 | 1020.9 |
| 20260902081735 | 67 | 352 | 3.0 | 6.0 | 0.00 | 0.00 | 0.00 | 73 | 1020.8 |
| 20260902080734 | 66 | 341 | 3.0 | 6.0 | 0.00 | 0.00 | 0.00 | 72 | 1020.6 |
| 20260902080209 | 65 | 324 | 2.0 | 4.0 | 0.00 | 0.00 | 0.00 | 71 | 1020.7 |
| 20260902074710 | 65 | 340 | 3.0 | 6.0 | 0.00 | 0.00 | 0.00 | 69 | 1020.3 |
| 20260902073710 | 65 | 333 | 4.0 | 4.0 | 0.00 | 0.00 | 0.00 | 70 | 1020.4 |
| 20260902072710 | 64 | 349 | 3.0 | 6.0 | 0.00 | 0.00 | 0.00 | 69 | 1020.2 |
| 20260902071710 | 65 | 18 | 3.0 | 6.0 | 0.00 | 0.00 | 0.00 | 71 | 1020.2 |
| 20260902070710 | 65 | 337 | 3.0 | 6.0 | 0.00 | 0.00 | 0.00 | 74 | 1020.1 |
| 20260902070145 | 65 | 337 | 3.0 | 4.0 | 0.00 | 0.00 | 0.00 | 77 | 1020.3 |
| 20260902064710 | 64 | 333 | 4.0 | 6.0 | 0.00 | 0.00 | 0.00 | 78 | 1020.3 |
| 20260902063710 | 64 | 352 | 4.0 | 6.0 | 0.00 | 0.00 | 0.00 | 77 | 1020.1 |
| 20260902062711 | 64 | 328 | 3.0 | 7.0 | 0.00 | 0.00 | 0.00 | 75 | 1020.1 |
| 20260902062628 | 64 | 344 | 4.0 | 6.0 | 0.00 | 0.00 | 0.00 | 79 | 1020.0 |
| 20260902060713 | 65 | 348 | 4.0 | 4.0 | 0.00 | 0.00 | 0.00 | 81 | 1020.1 |
| 20260902055710 | 65 | 353 | 3.0 | 6.0 | 0.00 | 0.00 | 0.00 | 82 | 1019.9 |
| 20260902054710 | 64 | 343 | 4.0 | 6.0 | 0.00 | 0.00 | 0.00 | 83 | 1019.9 |
| 20260902053710 | 64 | 348 | 3.0 | 4.0 | 0.00 | 0.00 | 0.00 | 82 | 1019.9 |
| 20260902052710 | 64 | 334 | 3.0 | 4.0 | 0.00 | 0.00 | 0.00 | 81 | 1020.1 |
| 20260902051711 | 65 | 5 | 4.0 | 6.0 | 0.00 | 0.00 | 0.00 | 79 | 1019.9 |
| 20260902050710 | 65 | 359 | 2.0 | 6.0 | 0.00 | 0.00 | 0.00 | 78 | 1019.7 |
| 20260902045710 | 65 | 343 | 4.0 | 7.0 | 0.00 | 0.00 | 0.00 | 76 | 1019.7 |
| 20260902044710 | 65 | 351 | 4.0 | 8.0 | 0.00 | 0.00 | 0.00 | 77 | 1019.7 |
| 20260902043710 | 65 | 337 | 3.0 | 6.0 | 0.00 | 0.00 | 0.00 | 80 | 1019.7 |
| 20260902042710 | 64 | 337 | 4.0 | 6.0 | 0.00 | 0.00 | 0.00 | 80 | 1019.9 |
| 20260902042159 | 65 | 337 | 3.0 | 4.0 | 0.00 | 0.00 | 0.00 | 76 | 1019.9 |
| 20260902040712 | 65 | 349 | 3.0 | 6.0 | 0.00 | 0.00 | 0.00 | 77 | 1019.9 |
| 20260902035710 | 65 | 343 | 4.0 | 8.0 | 0.00 | 0.00 | 0.00 | 76 | 1019.9 |
| 20260902034710 | 65 | 352 | 4.0 | 8.0 | 0.00 | 0.00 | 0.00 | 77 | 1019.9 |
| 20260902033710 | 65 | 351 | 4.0 | 7.0 | 0.00 | 0.00 | 0.00 | 81 | 1019.9 |
| 20260902032709 | 65 | 332 | 4.0 | 6.0 | 0.00 | 0.00 | 0.00 | 85 | 1020.2 |
| 20260902031711 | 65 | 338 | 2.0 | 6.0 | 0.00 | 0.00 | 0.00 | 85 | 1020.1 |
| 20260902030711 | 65 | 342 | 2.0 | 4.0 | 0.00 | 0.00 | 0.00 | 83 | 1020.2 |
| 20260902025711 | 65 | 333 | 3.0 | 4.0 | 0.00 | 0.00 | 0.00 | 82 | 1020.4 |
| 20260902024710 | 65 | 354 | 2.0 | 4.0 | 0.00 | 0.00 | 0.00 | 82 | 1020.5 |
| 20260902023710 | 65 | 5 | 3.0 | 4.0 | 0.00 | 0.00 | 0.00 | 80 | 1020.7 |
| 20260902022710 | 64 | 345 | 4.0 | 6.0 | 0.00 | 0.00 | 0.00 | 80 | 1020.8 |
| 20260902021710 | 65 | 339 | 2.0 | 4.0 | 0.00 | 0.00 | 0.00 | 83 | 1020.6 |